Location: Bruderhein
(53.8035°N, 112.9265°W)
Time: 02:21:50
(UTC+00:00)

KKS-1 - Pass Details

Date: 02 April 2023
Orbit: 633 x 644 km, 98.2° (Epoch: 31 May)

Event Time Altitude Azimuth Distance (km) Brightness Sun altitude
Rises 06:25:21 0° 14° (NNE) 2,946 ? -29.5°
Reaches altitude 10° 06:27:33 10° 15° (NNE) 2,032 ? -29.6°
Enters shadow 06:30:16 37° 13° (NNE) 987 ? -29.8°
